DW7898 Mollet del Valles (Barcelona) ES current weather conditions

sailwx.info

Wind from 047 at 0 knots gusting 2

Air temperature 5.6° C
Dewpoint 3.4° C

Last reported at 2019-Nov-14 21:03 UTC.
Time now 2019-Nov-14 21:41 UTC

Location: N 41°32' E 002°13'.
View on Google Maps.

See reports from other nearby stations

  
Tides and Currents Weather Stations Pressure Air Temp Water Temp Dewpoint Dewpoint Depression Visibility Wind Speed Wind Dir Waves Ship Positions
date/time (UTC)wind fromknots sea level pressurealtimeterstation pressurevisibilityair tempwater tempwave heightnotes
2019-Nov-14 21:03 047 0 gusting 2 5.6
2019-Nov-14 20:53 046 1 gusting 3 5.6
2019-Nov-14 20:43 043 0 gusting 3 6.1
2019-Nov-14 20:33 046 6.1
2019-Nov-14 20:23 046 6.1
2019-Nov-14 20:13 046 6.1
2019-Nov-14 20:03 046 0 gusting 2 6.1
2019-Nov-14 19:53 046 0 gusting 4 6.1
2019-Nov-14 19:43 044 3 gusting 5 6.7
2019-Nov-14 19:33 038 4 gusting 6 6.7
2019-Nov-14 19:23 041 1 gusting 3 6.7
2019-Nov-14 19:13 045 0 gusting 2 6.7
2019-Nov-14 19:03 054 2 gusting 4 6.7
2019-Nov-14 18:53 044 2 gusting 5 7.2
2019-Nov-14 18:43 050 7.8
2019-Nov-14 18:33 060 0 gusting 3 7.8
2019-Nov-14 18:23 051 1 gusting 3 7.8
2019-Nov-14 18:13 075 1 gusting 4 8.3
2019-Nov-14 18:03 068 0 gusting 3 8.3
2019-Nov-14 17:53 098 1 gusting 3 8.3
2019-Nov-14 17:43 134 0 gusting 2 8.9
2019-Nov-14 17:33 154 8.9
2019-Nov-14 17:23 111 8.9
2019-Nov-14 17:13 121 2 gusting 3 9.4
2019-Nov-14 17:03 268 9.4
2019-Nov-14 16:53 268 0 gusting 3 9.4
2019-Nov-14 16:43 311 2 gusting 5 9.4
2019-Nov-14 16:33 275 3 gusting 6 9.4
2019-Nov-14 16:23 276 4 gusting 7 9.4
2019-Nov-14 16:13 289 3 gusting 10 9.4
2019-Nov-14 16:03 288 5 gusting 7 9.4
2019-Nov-14 15:53 290 3 gusting 7 9.4
2019-Nov-14 15:43 279 4 gusting 8 9.4
2019-Nov-14 15:33 257 2 gusting 4 10.0
2019-Nov-14 15:23 223 3 gusting 6 10.0
2019-Nov-14 15:13 233 4 gusting 6 10.0
2019-Nov-14 15:03 226 0 gusting 3 10.0
2019-Nov-14 14:53 258 2 gusting 4 10.0
2019-Nov-14 14:43 253 0 gusting 4 10.0
2019-Nov-14 14:33 218 2 gusting 5 10.0
2019-Nov-14 14:23 284 2 gusting 5 10.0
2019-Nov-14 14:13 270 0 gusting 9 10.0
2019-Nov-14 14:03 280 4 gusting 11 10.6
2019-Nov-14 13:53 273 3 gusting 5 10.6
2019-Nov-14 13:43 266 0 gusting 6 11.1
2019-Nov-14 13:33 213 4 gusting 6 11.1
2019-Nov-14 13:23 211 1 gusting 5 11.7
2019-Nov-14 13:13 302 0 gusting 5 11.7
2019-Nov-14 13:03 265 3 gusting 5 11.7
2019-Nov-14 12:53 286 2 gusting 5 11.1
2019-Nov-14 12:33 272 11.1
2019-Nov-14 12:23 272 0 gusting 1 11.1
2019-Nov-14 12:13 272 0 gusting 3 11.1
2019-Nov-14 12:03 271 1 gusting 3 11.1
2019-Nov-14 11:53 111 11.1
2019-Nov-14 11:43 064 11.1
2019-Nov-14 11:33 136 11.1
2019-Nov-14 11:23 136 11.1
2019-Nov-14 11:13 136 11.1
2019-Nov-14 11:03 122 0 gusting 3 10.6
2019-Nov-14 10:53 136 2 gusting 3 10.6
2019-Nov-14 10:43 155 0 gusting 4 10.6
2019-Nov-14 10:33 217 2 gusting 3 10.6
2019-Nov-14 10:23 287 0 gusting 4 10.0
2019-Nov-14 10:13 262 2 gusting 5 10.0
2019-Nov-14 10:03 278 2 gusting 4 10.0
2019-Nov-14 09:53 289 1 gusting 2 10.6
2019-Nov-14 09:43 037 0 gusting 1 10.0
2019-Nov-14 09:33 037 0 gusting 1 10.0
2019-Nov-14 09:23 037 0 gusting 2 10.0
2019-Nov-14 09:13 027 0 gusting 2 9.4
2019-Nov-14 09:03 035 0 gusting 2 9.4
2019-Nov-14 08:53 095 1 gusting 2 9.4
2019-Nov-14 08:43 102 0 gusting 2 9.4
2019-Nov-14 08:33 106 1 gusting 2 8.9
2019-Nov-14 08:23 262 1 gusting 2 8.3
2019-Nov-14 08:13 125 0 gusting 6 8.3
2019-Nov-14 08:03 163 4 gusting 5 8.3
2019-Nov-14 07:53 354 1 gusting 3 8.3
2019-Nov-14 07:43 311 8.3
2019-Nov-14 07:33 331 0 gusting 3 8.3
2019-Nov-14 07:23 233 0 gusting 1 7.8
2019-Nov-14 07:13 233 7.8
2019-Nov-14 07:03 233 0 gusting 1 7.8
2019-Nov-14 06:53 233 0 gusting 2 7.8
2019-Nov-14 06:43 159 7.8
2019-Nov-14 06:33 160 7.8
2019-Nov-14 06:23 160 0 gusting 2 7.8
2019-Nov-14 06:13 016 0 gusting 3 7.8
2019-Nov-14 06:03 041 1 gusting 2 7.8
2019-Nov-14 05:53 077 0 gusting 2 7.8
2019-Nov-14 05:43 121 0 gusting 2 7.2
2019-Nov-14 05:33 060 1 gusting 3 7.2
2019-Nov-14 05:23 161 0 gusting 4 7.2
2019-Nov-14 05:13 014 3 gusting 5 7.2
2019-Nov-14 05:03 038 1 gusting 3 7.2
2019-Nov-14 04:53 063 0 gusting 2 7.2
2019-Nov-14 04:43 035 1 gusting 4 6.7
2019-Nov-14 04:33 050 2 gusting 4 6.7
2019-Nov-14 04:23 047 0 gusting 2 6.7
2019-Nov-14 04:13 064 2 gusting 4 6.7
2019-Nov-14 04:03 045 0 gusting 3 6.7
2019-Nov-14 03:53 075 0 gusting 1 6.7
2019-Nov-14 03:43 054 6.7
2019-Nov-14 03:33 054 1 gusting 2 6.7
2019-Nov-14 03:23 009 1 gusting 3 6.7
2019-Nov-14 03:13 064 1 gusting 2 6.7
2019-Nov-14 03:03 064 0 gusting 1 6.7
2019-Nov-14 02:53 064 1 gusting 2 6.7
2019-Nov-14 02:43 064 6.7
2019-Nov-14 02:33 064 6.7
2019-Nov-14 02:23 064 6.7
2019-Nov-14 02:13 064 6.7
2019-Nov-14 02:03 064 0 gusting 0 6.7
2019-Nov-14 01:53 064 6.7
2019-Nov-14 01:43 064 0 gusting 3 6.7
2019-Nov-14 01:33 064 1 gusting 2 6.7
2019-Nov-14 01:23 069 0 gusting 2 6.7
2019-Nov-14 01:13 115 6.7
2019-Nov-14 01:03 136 6.7
2019-Nov-14 00:53 136 6.7
2019-Nov-14 00:43 136 6.7
2019-Nov-14 00:33 140 2 gusting 3 7.2
2019-Nov-14 00:23 268 7.2
2019-Nov-14 00:13 269 0 gusting 2 7.2
2019-Nov-14 00:03 154 7.2
2019-Nov-13 23:53 154 7.2
2019-Nov-13 23:43 155 7.8
2019-Nov-13 23:33 140 7.8
2019-Nov-13 23:13 140 7.8
2019-Nov-13 23:03 140 0 gusting 2 7.8
2019-Nov-13 22:53 140 1 gusting 2 7.8
2019-Nov-13 22:43 140 7.8
2019-Nov-13 22:33 140 7.8
2019-Nov-13 22:23 292 8.3
2019-Nov-13 22:13 313 0 gusting 2 8.3
2019-Nov-13 22:03 026 0 gusting 2 8.3
2019-Nov-13 21:53 064 1 gusting 2 8.3
2019-Nov-13 21:43 048 1 gusting 2 8.3
2019-Nov-13 21:33 048 1 gusting 3 8.9
2019-Nov-13 21:23 049 0 gusting 2 8.9
2019-Nov-13 21:13 049 0 gusting 2 8.9
2019-Nov-13 21:03 049 2 gusting 3 8.9
2019-Nov-13 20:53 084 0 gusting 2 8.9
2019-Nov-13 20:43 042 1 gusting 1 9.4
2019-Nov-13 20:33 042 1 gusting 2 9.4
2019-Nov-13 20:23 010 0 gusting 2 9.4
2019-Nov-13 20:13 010 1 gusting 3 9.4
2019-Nov-13 20:03 9.4
2019-Nov-13 19:53 039 0 gusting 3 10.0
2019-Nov-13 19:33 043 2 gusting 4 10.6
2019-Nov-13 19:23 051 0 gusting 3 11.1
2019-Nov-13 19:13 11.1
2019-Nov-13 19:03 298 1 gusting 3 11.7
2019-Nov-13 18:53 306 1 gusting 4 11.7
2019-Nov-13 18:43 267 1 gusting 5 11.7
2019-Nov-13 18:33 288 3 gusting 5 11.7
2019-Nov-13 18:23 259 1 gusting 3 11.7
2019-Nov-13 18:13 258 1 gusting 3 11.7
2019-Nov-13 18:03 253 1 gusting 2 11.7
2019-Nov-13 17:53 252 12.2
2019-Nov-13 17:43 252 0 gusting 2 12.2
2019-Nov-13 17:33 247 0 gusting 4 12.2
2019-Nov-13 17:23 235 1 gusting 3 12.2
2019-Nov-13 17:13 245 1 gusting 4 12.8
2019-Nov-13 17:03 225 1 gusting 6 12.8
2019-Nov-13 16:53 214 2 gusting 6 12.8
2019-Nov-13 16:43 242 2 gusting 6 13.3
2019-Nov-13 16:33 214 2 gusting 6 13.3
2019-Nov-13 16:23 224 3 gusting 6 13.9
2019-Nov-13 16:13 229 4 gusting 6 13.9
2019-Nov-13 16:03 232 2 gusting 5 13.9
2019-Nov-13 15:43 254 2 gusting 6 14.4
2019-Nov-13 15:33 225 2 gusting 7 14.4
2019-Nov-13 15:23 224 4 gusting 6 14.4
2019-Nov-13 15:13 214 3 gusting 6 14.4
2019-Nov-13 15:03 280 0 gusting 8 14.4
2019-Nov-13 14:43 220 3 gusting 9 14.4
2019-Nov-13 14:33 249 2 gusting 7 14.4
2019-Nov-13 14:23 221 6 gusting 8 14.4
2019-Nov-13 14:13 284 1 gusting 9 14.4
2019-Nov-13 14:03 269 4 gusting 6 14.4
2019-Nov-13 13:53 235 3 gusting 6 13.9
2019-Nov-13 13:43 280 3 gusting 6 13.9
2019-Nov-13 13:33 221 4 gusting 6 13.3
2019-Nov-13 13:23 234 2 gusting 5 12.8
2019-Nov-13 13:13 238 3 gusting 5 12.8
2019-Nov-13 13:03 227 1 gusting 6 12.8
2019-Nov-13 12:53 262 2 gusting 5 12.2
2019-Nov-13 12:43 227 3 gusting 5 11.7
2019-Nov-13 12:33 221 0 gusting 2 11.7
2019-Nov-13 12:23 221 1 gusting 3 11.1
2019-Nov-13 12:13 221 0 gusting 2 11.1
2019-Nov-13 12:03 221 0 gusting 2 10.6
2019-Nov-13 11:53 221 10.6
2019-Nov-13 11:43 222 1 gusting 4 10.6
2019-Nov-13 11:33 210 1 gusting 4 10.6
2019-Nov-13 11:23 224 2 gusting 3 10.6
2019-Nov-13 11:13 047 0 gusting 3 10.6
2019-Nov-13 11:03 048 1 gusting 3 10.6
2019-Nov-13 10:53 048 0 gusting 2 10.6
2019-Nov-13 10:43 048 0 gusting 2 10.6
2019-Nov-13 10:33 047 0 gusting 3 10.6
2019-Nov-13 10:23 047 1 gusting 2 10.0
2019-Nov-13 10:13 047 1 gusting 3 10.0
2019-Nov-13 10:03 047 1 gusting 2 10.0
2019-Nov-13 09:53 047 10.0
2019-Nov-13 09:43 047 1 gusting 2 9.4
2019-Nov-13 09:33 047 0 gusting 1 9.4
2019-Nov-13 09:23 047 0 gusting 2 9.4
2019-Nov-13 09:13 047 1 gusting 3 8.9
2019-Nov-13 09:03 047 0 gusting 2 8.9
2019-Nov-13 08:53 047 1 gusting 2 8.9
2019-Nov-13 08:43 047 1 gusting 3 8.9
2019-Nov-13 08:33 047 1 gusting 2 8.3
2019-Nov-13 08:23 047 1 gusting 1 8.9
2019-Nov-13 08:13 047 8.3
2019-Nov-13 08:03 047 8.3
2019-Nov-13 07:54 047 8.3
2019-Nov-13 07:43 047 8.3
2019-Nov-13 07:33 047 7.8
2019-Nov-13 07:23 047 7.8
2019-Nov-13 07:13 047 7.8
2019-Nov-13 07:03 047 0 gusting 3 7.8
2019-Nov-13 06:53 047 1 gusting 4 7.8
2019-Nov-13 06:43 047 1 gusting 3 7.8
2019-Nov-13 06:33 047 0 gusting 4 7.2
2019-Nov-13 06:23 047 2 gusting 3 7.2
2019-Nov-13 06:14 047 1 gusting 2 6.7
2019-Nov-13 06:03 047 1 gusting 2 6.7
2019-Nov-13 05:53 047 0 gusting 1 6.7
2019-Nov-13 05:43 047 1 gusting 2 6.7
2019-Nov-13 05:33 047 6.7
2019-Nov-13 05:23 047 1 gusting 3 6.1
2019-Nov-13 05:13 047 1 gusting 4 6.1
2019-Nov-13 05:03 047 0 gusting 3 6.1
2019-Nov-13 04:53 047 1 gusting 4 6.1
2019-Nov-13 04:43 047 3 gusting 4 6.1
2019-Nov-13 04:33 047 2 gusting 3 6.1
2019-Nov-13 04:23 047 0 gusting 4 5.6
2019-Nov-13 04:13 047 1 gusting 4 5.6
2019-Nov-13 04:03 047 3 gusting 5 6.1
2019-Nov-13 03:54 047 1 gusting 3 6.1
2019-Nov-13 03:43 047 1 gusting 2 6.1
2019-Nov-13 03:33 047 0 gusting 5 6.1
2019-Nov-13 03:23 047 2 gusting 4 6.1
2019-Nov-13 03:13 047 1 gusting 3 6.1
2019-Nov-13 03:03 040 2 gusting 5 6.1
2019-Nov-13 02:53 063 2 gusting 3 6.1
2019-Nov-13 02:43 164 0 gusting 2 6.7
2019-Nov-13 02:33 164 0 gusting 1 6.7
2019-Nov-13 02:23 164 6.7
2019-Nov-13 02:13 193 0 gusting 2 6.7
2019-Nov-13 02:03 195 6.7
2019-Nov-13 01:53 239 0 gusting 1 6.7
2019-Nov-13 01:43 279 0 gusting 2 6.7
2019-Nov-13 01:33 027 0 gusting 2 7.2
2019-Nov-13 01:23 069 0 gusting 2 7.2
2019-Nov-13 01:13 069 7.2
2019-Nov-13 01:03 069 0 gusting 1 7.2
2019-Nov-13 00:53 069 1 gusting 2 7.2
2019-Nov-13 00:43 077 7.8
2019-Nov-13 00:33 222 1 gusting 1 7.8
2019-Nov-13 00:23 222 7.8
2019-Nov-13 00:13 222 0 gusting 2 7.8
2019-Nov-13 00:03 222 0 gusting 1 7.8
2019-Nov-12 23:53 222 0 gusting 2 8.3
2019-Nov-12 23:43 222 0 gusting 1 8.3
2019-Nov-12 23:33 222 8.3
2019-Nov-12 23:23 222 8.3
2019-Nov-12 23:13 222 8.9
2019-Nov-12 23:03 048 0 gusting 3 8.9
2019-Nov-12 22:33 162 0 gusting 2 8.9
2019-Nov-12 22:23 164 9.4
2019-Nov-12 22:13 165 1 gusting 3 9.4
2019-Nov-12 22:03 256 9.4
2019-Nov-12 21:53 256 10.0
2019-Nov-12 21:43 256 0 gusting 2 10.0
2019-Nov-12 21:33 260 2 gusting 3 10.0
2019-Nov-12 21:23 039 10.6
2019-Nov-12 21:13 039 10.6
2019-Nov-12 21:03 069 1 gusting 4 11.1